Regional Weather Roundup
Issued by NWS

Home | Current Version | Previous Version | Graphics & Text | Print | Product List | Glossary On
Versions: 1 2 3 4 5 6 7 8 9 10 11 12 13 14 15 16 17 18 19 20 21 22 23 24 25 26 27 28 29 30 31 32 33 34 35 36 37 38 39 40 41 42 43 44 45 46 47 48 49 50
000
ASUS45 KCYS 271410
RWRWY

WYOMING REGIONAL WEATHER ROUNDUP
NATIONAL WEATHER SERVICE CHEYENNE WY
700 AM MST FRI FEB 27 2015

NOTE:  "FAIR" INDICATES FEW OR NO CLOUDS BELOW 12,000 FEET
WITH NO SIGNIFICANT WEATHER AND/OR OBSTRUCTIONS TO VISIBILITY.

WYZ001-271500-
YELLOWSTONE NATIONAL PARK

CITY           SKY/WX    TMP DP  RH WIND       PRES   REMARKS
LK YELLOWSTONE   N/A     -3  -8  79 CALM      29.78F
W YELLOWSTONE  NOT AVBL

$$
WYZ002>013-054>058-071-098>099-271500-
NORTHERN WYOMING

CITY           SKY/WX    TMP DP  RH WIND       PRES   REMARKS
JACKSON        CLOUDY     7   3  85 N7        29.83F WCI  -5
CODY           FAIR       0  -6  78 CALM      29.89F
GREYBULL       FAIR       9   2  73 S3        30.00F
WORLAND        FAIR       1  -3  83 S5        29.97F WCI  -9
SHERIDAN       FAIR     -12 -17  78 CALM      29.98F
BUFFALO        FAIR      -2  -6  83 S9        29.90F WCI -18
GILLETTE       FAIR       2  -4  76 S22       30.00F WCI -20
HULETT         FAIR       9   0  66 S12       30.04F WCI  -6
NEWCASTLE      PTSUNNY    5  -4  66 MISG      30.11F

$$
WYZ014>020-022>026-101>103-271500-
CENTRAL WYOMING

CITY           SKY/WX    TMP DP  RH WIND       PRES   REMARKS
BIG PINEY      CLOUDY     9   4  80 CALM      29.83F
PINEDALE       FLURRIES   3   0  85 W5        29.84F WCI  -6
DUBOIS         PTSUNNY    0  -4  85 CALM      29.75F
LANDER         CLOUDY    -1  -7  75 W3        29.89F
RIVERTON       MOCLDY    -3  -8  79 W7        29.91F WCI -16
CASPER         FAIR      -2  -7  79 CALM      29.93F
DOUGLAS        FAIR       5   1  83 SE17      30.00F WCI -14

$$
WYZ021-027>030-104>119-271500-
SOUTHERN WYOMING

CITY           SKY/WX    TMP DP  RH WIND       PRES   REMARKS
EVANSTON       CLOUDY    11   8  88 E10       29.79F WCI  -3
FORT BRIDGER   LGT SNOW  10   9  95 NE3       29.85F
ROCK SPRINGS   FAIR       3  -2  79 CALM      29.85F
DIXON          FAIR       6   2  83 W3        29.90S
RAWLINS        FAIR      -2  -8  76 CALM      29.85S
SARATOGA       FAIR      -8 -13  77 MISG      29.84S
LARAMIE        FAIR      -2  -5  87 S20       29.80F WCI -24
CHEYENNE       CLOUDY     3  -1  83 S12       29.94F FOG     WCI -13
TORRINGTON     CLOUDY     7   1  76 SE14      30.12F WCI -10
PINE BLUFFS    LGT SNOW   5   3  92 MISG      30.05S

$$


USA.gov is the U.S. government's official web portal to all federal, state and local government web resources and services.